Theta_e
312 312 312 313 313 313 313 314 314 314 315 315 316 317 317 317 318 318 322 326 327 326 327 340 347 347 348 348 343 343 348 338 336 337 338 337 340 342 344 348 348 347 347 348 349
312 312 312 313 313 313 314 314 314 314 315 316 316 316 317 318 318 324 325 322 321 323 331 342 344 344 346 340 338 340 340 337 336 336 336 336 336 340 345 346 350 349 347 350 349
312 312 312 312 313 313 314 314 314 315 315 315 316 316 317 317 322 331 329 326 321 323 338 340 336 341 340 336 336 338 339 337 336 335 335 337 337 338 342 345 348 350 349 350 350
311 312 312 312 313 313 313 314 314 315 315 315 316 316 317 317 331 334 328 326 321 324 338 338 334 338 338 337 336 336 337 336 336 335 335 339 337 338 339 342 344 348 350 350 351
311 311 311 312 312 313 313 314 314 315 315 315 316 316 316 326 324 325 329 324 321 332 335 335 334 336 337 335 336 336 337 335 335 335 338 338 339 339 340 341 344 348 350 350 351
311 311 311 312 312 313 313 314 314 315 315 316 316 316 320 323 326 322 328 321 329 331 332 331 331 333 331 332 334 335 335 335 335 336 338 338 338 339 343 343 346 349 350 350 351
310 311 311 312 312 312 313 313 314 315 315 316 316 316 320 321 322 330 330 329 332 331 329 329 329 328 330 334 332 333 334 336 335 336 337 336 336 342 342 344 348 349 349 350 351
310 311 311 311 312 312 313 313 314 315 315 316 316 316 323 321 322 328 334 333 332 330 327 325 325 327 329 330 332 333 333 334 336 336 335 335 336 338 340 346 349 349 349 350 352
307 309 311 311 312 312 313 313 313 314 315 315 317 325 322 321 320 322 328 330 330 327 327 325 325 327 327 329 330 332 334 333 335 335 334 335 335 336 338 343 348 349 349 350 354
306 307 308 310 312 312 313 314 314 314 316 316 319 323 322 322 322 322 322 324 326 325 325 326 325 328 329 329 329 330 333 334 334 334 334 334 334 335 337 339 344 350 350 350 353
306 306 306 308 310 312 313 315 320 326 322 322 325 323 323 322 323 323 323 323 324 325 327 326 328 328 329 330 330 330 331 333 334 333 333 332 334 335 337 337 341 349 351 351 351
305 307 307 307 308 310 312 318 317 314 318 321 321 322 324 324 324 324 324 325 326 327 327 327 328 329 329 329 329 329 329 330 330 331 331 332 333 335 336 340 340 347 349 350 351
305 306 309 307 308 313 312 316 315 315 319 320 321 322 322 322 323 324 325 325 328 328 328 328 328 329 328 329 328 328 329 330 330 330 331 332 334 334 336 343 344 342 346 349 351
305 306 307 308 311 310 316 316 313 316 320 322 323 323 323 323 324 323 324 325 328 329 329 329 329 328 327 327 327 328 329 329 329 329 329 332 333 336 336 339 344 344 344 348 350
304 305 306 307 306 312 312 312 313 317 320 324 324 323 324 323 324 325 324 325 328 329 329 329 328 328 327 327 327 327 329 329 329 330 330 330 334 334 336 337 339 341 347 347 350
304 304 305 308 309 311 311 312 315 320 321 323 324 324 324 324 326 325 325 324 326 329 330 330 329 329 328 328 327 328 328 329 329 330 330 331 333 334 335 337 336 344 347 349 351
305 304 305 305 310 310 310 313 320 321 323 323 323 324 324 325 327 327 326 326 326 327 328 329 329 329 328 327 328 328 328 329 331 332 330 332 333 334 333 333 336 339 349 351 351
305 305 306 306 310 310 311 316 321 323 323 324 323 324 324 325 325 327 327 328 328 328 328 329 330 329 329 328 328 328 328 329 332 333 333 334 333 332 332 332 335 345 347 352 351
305 308 310 313 312 311 313 317 321 323 324 323 323 322 323 324 325 326 326 327 328 329 329 329 329 330 330 329 329 328 330 330 330 332 332 333 332 332 332 332 333 344 348 351 350
304 309 312 315 314 313 314 317 320 322 322 322 322 323 323 324 325 325 326 326 326 327 328 328 329 330 329 328 328 328 329 329 330 332 333 332 332 332 333 333 337 345 347 351 347
307 311 317 315 316 313 314 317 319 319 321 321 322 322 323 324 325 326 326 326 326 327 328 328 329 329 328 327 328 328 328 329 331 331 331 332 332 336 333 334 337 346 347 353 348
308 314 316 313 316 315 316 317 317 319 319 321 321 321 323 324 324 325 326 327 328 327 326 327 328 328 329 329 329 329 329 329 330 331 331 333 331 331 332 337 340 344 347 352 352
310 310 315 313 318 319 317 316 317 318 319 320 320 321 321 321 323 324 327 326 328 329 329 328 327 328 328 328 329 328 329 330 331 331 333 333 334 335 337 340 344 346 349 352 349
309 316 318 315 316 318 320 318 317 316 317 318 320 320 321 321 323 324 326 326 326 329 325 331 329 328 327 329 329 329 328 329 329 332 331 331 331 337 342 343 345 346 352 352 346
312 316 321 323 319 318 318 319 321 321 319 319 320 319 320 322 322 323 324 325 325 324 329 330 331 330 329 328 330 329 328 328 329 330 330 334 343 343 346 345 344 346 351 352 350
314 318 320 320 322 323 319 321 322 324 324 323 323 321 322 322 322 322 324 325 326 327 328 331 334 335 331 329 329 328 328 329 329 329 329 330 338 335 343 344 344 343 343 347 351
308 309 315 319 322 324 322 320 322 322 323 322 323 323 323 323 322 321 322 325 327 328 329 330 332 335 331 329 329 329 328 328 329 329 330 338 346 344 344 348 347 346 348 348 345
Wind_Speed
12 11 11 12 12 13 13 13 13 12 12 13 12 12 13 13 13 12 9 12 10 10 7 5 7 6 7 11 9 15 14 9 10 8 10 9 6 6 3 11 3 3 7 17 18
13 14 14 13 13 13 14 14 14 14 13 13 13 13 13 12 13 13 13 12 14 11 9 11 7 7 12 8 6 12 12 10 10 10 10 8 1 1 3 11 7 7 10 18 20
14 14 14 15 15 14 15 15 15 15 15 14 14 14 13 13 12 5 8 9 14 12 12 10 7 9 16 10 8 10 11 11 9 11 12 10 6 4 5 6 14 13 14 19 19
15 16 16 16 16 16 16 16 16 16 16 15 15 15 13 11 5 3 5 8 13 15 13 13 11 14 17 13 4 10 15 13 11 11 10 10 11 3 3 6 6 10 17 20 18
16 17 17 18 18 18 18 17 17 16 16 16 16 16 13 9 12 9 7 7 15 16 16 15 15 15 17 16 12 13 14 16 17 10 8 10 5 7 3 3 4 12 18 20 17
18 18 18 19 19 19 19 18 19 18 16 16 16 16 11 16 3 9 7 7 15 14 14 15 14 12 17 19 16 18 16 22 22 5 3 10 12 4 6 5 9 14 18 19 19
18 19 19 20 21 20 19 20 20 18 17 16 15 14 12 18 5 8 10 10 13 13 13 13 15 15 18 15 19 15 17 18 18 6 9 11 17 12 6 6 11 14 18 19 19
19 20 20 20 21 22 21 20 20 19 17 16 14 12 14 8 9 13 15 14 14 12 13 9 11 16 20 19 24 18 19 17 18 3 10 6 10 10 4 8 10 13 18 20 18
20 20 21 22 22 21 20 21 21 18 17 14 11 7 19 12 13 17 18 17 15 13 14 11 11 17 18 14 17 17 16 17 21 11 6 12 12 6 4 7 10 13 18 19 18
21 21 21 20 22 22 20 18 19 17 16 13 13 9 23 12 12 15 20 20 16 16 16 15 17 15 14 13 15 16 19 18 14 9 7 12 15 5 3 8 11 14 17 20 19
22 21 21 21 19 19 18 12 13 5 12 18 8 16 2 10 9 12 17 19 18 19 17 22 15 16 17 16 13 15 14 17 15 12 13 15 15 14 1 9 10 14 17 18 19
23 22 21 19 18 14 10 9 5 8 13 19 25 26 21 9 8 17 19 21 20 19 20 18 17 16 16 9 10 13 15 16 15 15 15 15 17 10 4 7 8 14 16 17 19
23 23 21 18 15 8 10 5 5 11 10 24 27 29 27 25 26 20 22 25 19 20 18 18 18 5 10 10 15 16 17 15 15 13 12 15 16 16 11 7 7 11 13 17 19
22 22 21 16 6 9 4 5 7 8 7 19 24 27 25 23 26 29 26 26 22 21 18 18 17 18 12 13 16 17 16 16 11 10 12 16 15 18 14 12 9 8 11 14 18
22 22 18 18 13 6 7 9 9 4 7 9 27 16 23 27 23 28 30 27 25 20 16 17 15 13 15 17 18 17 14 8 12 13 16 19 11 10 11 11 12 11 7 8 17
21 21 20 11 12 11 10 9 6 8 12 11 7 13 18 24 27 9 23 32 26 24 20 21 22 11 14 13 15 13 9 14 17 14 14 17 17 12 12 15 4 11 5 9 14
21 20 21 15 5 8 10 5 8 11 13 24 13 15 22 24 26 23 18 21 20 19 23 25 21 17 15 13 11 14 14 12 13 12 12 11 13 9 10 7 2 4 9 11 15
23 20 19 12 8 8 6 10 17 15 23 9 9 15 19 22 21 30 25 22 26 27 18 21 22 22 19 20 17 17 17 13 13 11 10 12 9 10 4 4 3 4 7 12 16
24 12 13 9 8 8 12 13 17 15 20 10 18 13 19 21 11 18 22 26 27 26 25 22 24 22 26 23 20 20 18 17 19 17 10 10 4 12 12 7 8 10 11 15 17
26 13 10 8 5 7 11 17 19 24 7 8 14 18 18 21 16 21 16 21 23 24 25 23 26 19 12 11 20 22 16 13 12 16 16 12 9 7 9 7 9 8 15 18 19
15 9 3 5 6 13 11 16 19 31 6 13 18 18 17 15 9 14 19 20 12 21 19 21 20 19 11 12 17 12 16 15 17 14 13 13 11 8 4 4 4 8 14 17 20
9 6 1 2 10 14 13 18 21 17 14 14 15 16 17 15 9 18 15 8 3 13 13 19 14 12 17 19 19 21 19 20 13 17 13 12 13 5 3 10 4 7 12 16 16
8 15 6 5 8 10 12 14 14 13 16 18 16 18 17 15 13 17 17 11 3 10 6 14 13 13 17 17 13 10 18 10 19 15 16 10 7 9 12 10 7 3 12 13 11
8 4 9 9 16 10 13 8 13 18 16 21 18 17 17 16 14 12 12 3 1 7 12 6 10 14 16 18 14 22 19 17 16 12 13 15 16 13 9 9 9 6 12 12 10
6 3 6 3 7 9 8 13 13 12 12 15 11 19 18 17 17 16 15 18 9 5 5 7 12 13 18 18 15 20 21 22 21 17 16 5 12 12 13 10 13 11 8 9 11
9 7 11 17 14 9 6 7 16 13 14 14 13 16 16 18 18 16 17 13 13 13 11 7 9 11 12 16 12 17 11 12 16 20 17 21 11 3 9 10 17 15 11 6 4
7 11 11 13 11 9 5 8 11 13 16 16 18 9 13 8 13 22 22 14 4 9 3 5 8 7 15 17 15 15 14 14 14 11 8 4 14 10 9 13 14 12 11 9 6
Wind_Direction
351 347 346 345 342 340 338 337 337 338 338 335 331 323 320 316 307 295 261 247 256 249 234 185 203 252 267 273 269 283 269 31 24 13 342 78 345 100 33 125 140 136 72 135 152
341 340 339 337 334 332 331 330 329 329 330 328 326 324 319 313 298 269 249 246 240 235 199 184 213 236 257 267 270 279 310 23 6 356 345 334 10 98 266 140 153 134 125 139 151
333 331 328 328 328 326 325 323 321 322 323 322 320 322 319 316 297 216 233 257 228 212 190 203 260 245 277 264 295 303 307 324 334 6 324 333 280 168 166 241 161 170 161 156 161
325 323 323 322 321 319 319 317 315 315 316 318 319 319 320 308 309 247 248 249 213 185 202 220 247 250 262 280 268 287 306 300 323 317 326 351 336 5 319 343 66 155 165 166 169
324 321 319 317 315 313 312 311 308 309 310 313 314 315 324 270 263 261 262 212 184 184 206 218 238 256 268 274 297 270 281 306 303 308 342 319 245 3 327 32 134 144 161 171 178
324 322 318 313 311 309 307 305 304 304 305 307 308 309 303 271 252 252 233 198 183 195 209 224 246 271 288 280 279 293 303 293 285 316 251 293 306 224 124 131 151 157 165 178 185
325 322 320 316 311 306 303 301 299 299 300 302 302 304 279 257 249 213 205 193 190 203 221 237 253 262 267 274 267 291 275 277 274 243 288 309 283 287 81 153 160 172 174 183 187
327 325 321 317 312 309 305 299 295 295 295 296 299 298 269 255 226 205 196 202 208 224 235 251 247 261 268 276 274 268 269 269 267 163 262 280 301 112 114 151 176 185 182 187 186
328 326 324 320 315 309 305 301 296 291 289 287 298 267 269 233 219 217 206 206 211 222 228 238 249 252 254 241 257 249 257 256 263 162 292 278 301 215 165 162 185 193 192 194 184
330 328 325 322 319 315 310 302 297 289 280 273 258 266 242 237 228 217 215 212 219 220 222 227 236 243 233 245 249 246 239 238 234 268 233 264 281 285 139 251 198 205 200 199 190
330 332 329 324 321 321 322 329 279 239 230 239 232 232 203 228 223 213 203 206 221 228 221 214 235 239 243 248 261 291 297 287 302 301 285 276 275 283 331 261 221 197 203 204 199
331 331 332 329 324 323 338 321 345 324 297 257 257 254 244 224 259 223 198 201 208 226 223 241 229 253 267 281 294 266 260 265 268 266 267 279 259 263 229 264 250 198 208 206 197
329 329 331 335 330 349 315 291 301 329 263 269 246 240 236 233 240 236 205 215 214 224 235 236 243 236 243 230 246 252 259 269 276 291 263 250 268 265 201 225 229 244 215 198 197
327 326 331 337 336 323 325 286 324 310 272 258 221 233 235 229 233 231 228 218 228 242 241 249 232 259 221 243 255 260 244 249 275 266 260 221 253 241 212 192 191 224 211 193 194
327 323 327 326 310 307 294 312 305 269 265 234 220 206 215 208 225 225 221 220 234 229 240 249 227 244 254 258 249 256 280 262 262 271 267 262 236 281 182 217 207 190 198 206 191
325 319 315 330 310 286 296 299 283 232 244 258 190 199 220 209 229 230 204 218 227 239 248 245 261 235 247 252 243 251 254 254 249 252 253 236 252 234 201 217 205 107 185 192 192
324 314 306 298 248 279 294 266 226 240 232 258 242 223 213 223 220 222 197 211 221 225 236 245 231 235 242 259 221 224 241 246 234 227 239 244 214 270 312 346 196 321 167 191 187
324 316 305 283 269 270 259 229 243 242 244 285 316 279 231 221 229 215 227 226 214 229 236 229 238 226 220 227 246 214 241 254 260 251 280 145 219 236 231 298 172 200 174 181 186
331 326 293 284 252 228 231 226 231 254 277 286 289 251 261 239 255 228 237 230 236 218 235 250 248 239 220 213 226 244 239 239 267 279 276 264 230 159 223 238 207 188 178 180 182
334 319 267 229 234 205 233 248 260 259 310 311 265 266 259 253 199 235 227 234 240 236 236 237 252 252 186 211 238 232 240 231 247 259 277 264 250 251 175 210 212 164 193 182 178
335 287 196 251 201 218 236 241 241 259 267 267 277 282 281 289 314 265 236 240 226 235 230 222 239 236 171 197 222 203 241 250 264 235 252 243 248 80 106 200 21 171 191 180 183
297 265 152 165 224 231 240 242 263 285 258 231 268 288 300 312 304 290 277 298 106 271 227 236 234 236 219 202 221 240 212 221 241 243 271 294 295 336 112 85 74 141 165 173 180
292 286 253 208 253 244 225 257 271 271 263 259 245 251 261 275 280 267 287 75 24 246 249 231 234 243 243 244 198 242 256 232 222 245 270 265 268 54 81 81 86 151 153 150 168
292 276 185 218 263 290 299 273 253 239 254 274 275 268 261 259 258 274 286 236 266 333 7 315 246 231 250 228 236 202 228 240 244 236 236 242 260 119 106 77 57 101 140 161 171
245 270 351 272 247 258 282 310 310 287 222 253 254 246 255 253 252 258 252 280 186 132 246 243 248 251 257 274 266 277 202 221 232 235 252 154 93 13 57 61 66 73 129 154 178
296 330 344 286 277 269 254 261 294 277 276 267 233 266 243 236 249 254 255 268 270 185 237 228 258 273 257 253 246 257 251 261 246 217 233 259 108 195 106 80 72 67 73 104 192
313 291 271 290 251 238 211 261 290 319 286 248 272 271 262 273 255 246 259 282 323 303 261 287 296 227 247 251 215 238 243 228 248 235 257 357 84 107 107 79 61 54 55 51 38